VANGUARD DEB, 1576

Orbit data source: Space-Track

VANGUARD DEB, 1576 is space debris in LEO originally from a launch on Mon, 17 Mar 1958 UTC launched from the Air Force Eastern Test Range (AFETR). Debris objects in space refer to the collection of defunct objects orbiting the Earth. Examples of debris include non-operational satellites, rocket bodies, and fragments generated from explosions, collisions, or faulty payload assembly.

Loading next visibility...
Identifier
1576, 1958-002C
Orbit
LEO
Last TLE update
18 hours ago
Origin
Manufacturer
NRL
Mission
Spacecraft
Bus & Motor
Unknown
Mass
Unknown
Launch date (UTC)
1958-03-17 (67 years ago)
Launch vehicle
Unknown
Launch site
Air Force Eastern Test Range (AFETR)
Object type
Payload
Rocket body
Debris
Shape & HBR
Unknown
Radar Cross Section
Small (<0.1 m²)

Expand to show TLE details & history

TLE from 18 hours ago
0 VANGUARD DEB
1 01576U 58002C   25182.42575359  .00001125  00000-0  95557-3 0  9995
2 01576  34.2349 311.6479 1400729 305.8649  41.9643 11.81849388760589
Epoch: 2025-07-01T10:13Z
TLE epoch observation values (Epoch: 2025-07-01T10:13:05.11Z)
Latitude
-0.00001°
Longitude
-121.34479°
Altitude
998.107 km
Speed
7.691 km/s
True Right ascension
20h 46m 35s
True Declination
0° 00' 00"
Sunlit
Object was in full shadow at epoch
Visualization orbit readout
Latitude
-29.03156°
Longitude
-178.28705°
Altitude
640.675 km
Speed
8.044 km/s
Apparent Right ascension
19h 52m 24s
Apparent Declination
-75° 10' 49"
Sunlit
Object is in full shadow
Visualization observer readout
Local Sidereal Time
15:54:33
Azimuth
165.047° S
Elevation
-31.375°
Doppler factor
1
Orbital elements
Apogee altitude
2,906.882 km
Perigee altitude
625.309 km
Semi-major axis
8,144.233 km
Eccentricity
0.14007
Inclination
34.2349°
RAAN
311.6479°
Arg. of periapsis
305.8649°
True anomaly
Unknown
Mean anomaly
41.9643°
Eccentric anomaly
Unknown
Mean motion
2.95303 °/min
Orbital period
121.91 mins
BSTAR
0.00095557
Loading maneuver chart data...
Loading SW <> Apogee altitude chart data...
Loading historical data...
Loading historical data...
Loading historical data...
Loading historical data...
Loading historical data...
Loading historical data...
Loading historical data...
Other satellites on launch #2 in the year 1958 (1958-03-17 UTC)

VANGUARD DEB Visibility forecast

Observer location: undefined°, undefined°

Span
Click to sort rows by Start time (UTC) header in descending order
Start Az.
Max El. time (UTC)
Max El. Az.
Max El.
End time (UTC)
End Az.
16 mins2025-07-02 10:42:11.004Z188.164° SSW2025-07-02 10:48:11.004Z141.657° SSE24.355°2025-07-02 10:58:11.004Z89.258° E
23 mins2025-07-02 12:49:11.004Z232.547° WSW2025-07-02 12:58:11.004Z152.523° SSE40.45°2025-07-02 13:12:11.004Z88.155° E
28 mins2025-07-02 14:58:11.004Z260.257° W2025-07-02 15:09:11.004Z183.343° SSW43.319°2025-07-02 15:26:11.004Z103.942° ESE
30 mins2025-07-02 17:08:11.004Z271.813° WNW2025-07-02 17:21:11.004Z206.52° SW39.62°2025-07-02 17:38:11.004Z130.917° SE
24 mins2025-07-02 19:21:11.004Z267.077° W2025-07-02 19:33:11.004Z218.519° SW26.201°2025-07-02 19:45:11.004Z169.601° S
|